Home   Weather   Huddersfield   Past weeks

Flag for United Kingdom Past Weather in Huddersfield, England, United Kingdom — Yesterday and Last 2 Weeks

54 °F

Passing clouds.

Feels Like: 49 °F
Forecast: 52 / 58 °F
Wind: 14 mph from West

Location: Leeds And Bradford

Current Time: Oct 27, 2016 at 12:09:07 AM

Latest Report: Oct 26, 2016 at 11:20 PM

Visibility: N/A

Pressure: 30.30 "Hg

Humidity: 94%

Dew Point: 52 °F

Location of HuddersfieldLocation

Past Weather in Huddersfield — Graph


Huddersfield Temperature Yesterday

Maximum temperature yesterday: 55 °F (at 12:50 PM)
Minimum temperature yesterday: 48 °F (at 12:20 AM)
Average temperature yesterday: 52 °F

High & Low Weather Summary for the Past Weeks

High57 °F (Oct 16, 3:20 PM)100% (Oct 11, 10:20 PM)30.30 "Hg (Oct 11, 10:20 PM)
Low41 °F (Oct 23, 10:50 PM)67% (Oct 16, 4:20 PM)29.65 "Hg (Oct 15, 3:50 AM)
Average48 °F92%30.02 "Hg
* Reported Oct 11 10:20 PM — Oct 26 10:50 PM, Huddersfield, Weather by CustomWeather, © 2016

Note: Actual official high and low records may vary slightly from our data, if they occured in-between our weather recording intervals... More about our weather records


Huddersfield Weather History for the Previous 24 Hours

Scroll right to see more
Time TempWeatherWind HumidityBarometerVisibility
10:50 PM
Wed, Oct 26
54 °FPassing clouds.15 mph88%30.30 "HgN/A
10:20 PM54 °FPassing clouds.8 mph88%30.30 "HgN/A
9:50 PM54 °FPassing clouds.18 mph88%30.30 "HgN/A
9:20 PM52 °FPassing clouds.14 mph94%30.30 "HgN/A
8:50 PM52 °FPassing clouds.18 mph94%30.27 "HgN/A
8:20 PM52 °FPassing clouds.25 mph94%30.27 "HgN/A
7:50 PM52 °FPassing clouds.21 mph94%30.27 "HgN/A
7:20 PM52 °FPassing clouds.20 mph94%30.27 "HgN/A
6:50 PM54 °FPassing clouds.9 mph88%30.27 "HgN/A
6:20 PM54 °FPassing clouds.9 mph82%30.27 "HgN/A
5:50 PM54 °FPassing clouds.9 mph82%30.24 "HgN/A
5:20 PM54 °FPartly sunny.13 mph82%30.27 "HgN/A
4:50 PM54 °FPartly sunny.13 mph82%30.24 "HgN/A
4:20 PM54 °FScattered clouds.12 mph82%30.24 "HgN/A
3:50 PM54 °FScattered clouds.13 mph77%30.24 "HgN/A
3:20 PM55 °FScattered clouds.16 mph72%30.24 "HgN/A
2:50 PM55 °FScattered clouds.14 mph72%30.21 "HgN/A
2:20 PM55 °FScattered clouds.17 mph72%30.24 "HgN/A
1:50 PM55 °FScattered clouds.14 mph82%30.24 "HgN/A
1:20 PM55 °FScattered clouds.12 mph82%30.24 "HgN/A
12:50 PM55 °FScattered clouds.13 mph82%30.24 "HgN/A
12:20 PM54 °FScattered clouds.14 mph88%30.21 "HgN/A
11:50 AM54 °FSprinkles. Scattered clouds.13 mph94%30.24 "HgN/A
11:20 AM54 °FScattered showers. Scattered clouds.9 mph88%30.24 "HgN/A
10:50 AM54 °FScattered clouds.14 mph88%30.21 "HgN/A
10:20 AM54 °FScattered clouds.12 mph88%30.21 "HgN/A
9:50 AM52 °FScattered clouds.10 mph94%30.21 "HgN/A
9:20 AM50 °FScattered clouds.7 mph100%30.21 "Hg6 mi
8:50 AM50 °FPartly sunny.6 mph100%30.21 "Hg5 mi
8:20 AM50 °FScattered clouds.8 mph94%30.21 "Hg5 mi
7:50 AM50 °FPassing clouds.10 mph94%30.18 "Hg4 mi
7:20 AM50 °FPassing clouds.10 mph94%30.18 "HgN/A
6:50 AM50 °FPassing clouds.7 mph94%30.18 "HgN/A
6:20 AM50 °FPassing clouds.9 mph94%30.18 "HgN/A
5:50 AM50 °FPassing clouds.9 mph94%30.18 "HgN/A
5:20 AM50 °FPassing clouds.9 mph94%30.18 "HgN/A
4:50 AM50 °FPassing clouds.10 mph94%30.18 "HgN/A
4:20 AM48 °FClear.10 mph100%30.18 "Hg10 mi
3:50 AM48 °FPassing clouds.10 mph100%30.18 "HgN/A
3:20 AM48 °FPassing clouds.10 mph100%30.18 "HgN/A
2:50 AM48 °FPassing clouds.9 mph100%30.18 "HgN/A
2:20 AM50 °FPassing clouds.7 mph94%30.21 "HgN/A
1:50 AM50 °FPassing clouds.6 mph94%30.21 "HgN/A
1:20 AM50 °FPassing clouds.7 mph94%30.21 "HgN/A
12:50 AM48 °FPassing clouds.5 mph94%30.21 "HgN/A
12:20 AM48 °FClear.1 mph94%30.21 "Hg10 mi
Weather by CustomWeather, © 2016

See weather overviewHow to use our weather pages